Time,TemperatureF,DewpointF,PressureIn,WindDirection,WindDirectionDegrees,WindSpeedMPH,WindSpeedGustMPH,Humidity,HourlyPrecipIn,Conditions,Clouds,dailyrainin,SoftwareType,DateUTC
2013-08-07 00:01:00,72.3,67.2,29.98,South,180,0.0,3.1,84,0.00,,,0.00,WUHU216HW,2013-08-07 04:01:00,
2013-08-07 00:06:00,72.3,67.2,29.98,South,180,0.8,0.8,84,0.00,,,0.00,WUHU216HW,2013-08-07 04:06:00,
2013-08-07 00:11:00,72.1,67.0,29.98,South,180,0.0,0.8,84,0.00,,,0.00,WUHU216HW,2013-08-07 04:11:00,
2013-08-07 00:16:00,72.1,67.0,29.98,SSW,203,0.0,0.8,84,0.00,,,0.00,WUHU216HW,2013-08-07 04:16:00,
2013-08-07 00:21:00,72.1,67.0,29.97,SSW,203,0.0,0.0,84,0.00,,,0.00,WUHU216HW,2013-08-07 04:21:00,
2013-08-07 00:26:00,71.9,66.8,29.98,SSW,203,0.0,0.0,84,0.00,,,0.00,WUHU216HW,2013-08-07 04:26:00,
2013-08-07 00:31:00,71.9,66.8,29.98,SSW,203,0.0,0.0,84,0.00,,,0.00,WUHU216HW,2013-08-07 04:31:00,
2013-08-07 00:36:00,71.7,66.6,29.98,SSW,203,2.0,2.0,84,0.00,,,0.00,WUHU216HW,2013-08-07 04:36:00,
2013-08-07 00:41:00,71.7,67.0,29.98,SSW,203,0.0,2.0,85,0.00,,,0.00,WUHU216HW,2013-08-07 04:41:00,
2013-08-07 00:46:00,71.7,67.0,29.97,SSW,203,0.0,2.0,85,0.00,,,0.00,WUHU216HW,2013-08-07 04:46:00,
2013-08-07 00:51:00,71.7,67.0,29.98,SSW,203,0.0,0.0,85,0.00,,,0.00,WUHU216HW,2013-08-07 04:51:00,
2013-08-07 00:56:00,71.6,66.8,29.97,SSW,203,0.0,0.0,85,0.00,,,0.00,WUHU216HW,2013-08-07 04:56:00,
2013-08-07 01:01:00,71.4,66.6,29.98,SSW,203,0.0,3.1,85,0.00,,,0.00,WUHU216HW,2013-08-07 05:01:00,
2013-08-07 01:06:00,71.4,66.6,29.97,SSW,203,0.0,3.1,85,0.00,,,0.00,WUHU216HW,2013-08-07 05:06:00,
2013-08-07 01:11:00,71.4,66.6,29.97,South,180,0.8,0.8,85,0.00,,,0.00,WUHU216HW,2013-08-07 05:11:00,
2013-08-07 01:16:00,71.4,66.6,29.97,South,180,0.0,0.8,85,0.00,,,0.00,WUHU216HW,2013-08-07 05:16:00,
2013-08-07 01:21:00,71.2,66.4,29.97,South,180,0.0,1.1,85,0.00,,,0.00,WUHU216HW,2013-08-07 05:21:00,
2013-08-07 01:26:00,71.2,66.8,29.97,South,180,0.0,1.1,86,0.00,,,0.00,WUHU216HW,2013-08-07 05:26:00,
2013-08-07 01:31:00,71.2,66.8,29.97,SSW,203,0.0,0.0,86,0.00,,,0.00,WUHU216HW,2013-08-07 05:31:00,
2013-08-07 01:36:00,70.8,66.4,29.97,South,180,0.0,0.0,86,0.00,,,0.00,WUHU216HW,2013-08-07 05:36:00,
2013-08-07 01:41:00,70.8,66.4,29.98,South,180,0.0,0.0,86,0.00,,,0.00,WUHU216HW,2013-08-07 05:41:00,
2013-08-07 01:46:00,70.7,66.2,29.98,South,180,0.0,0.0,86,0.00,,,0.00,WUHU216HW,2013-08-07 05:46:00,
2013-08-07 01:51:00,70.7,66.2,29.97,South,180,0.0,0.0,86,0.00,,,0.00,WUHU216HW,2013-08-07 05:51:00,
2013-08-07 01:56:00,70.5,66.0,29.97,South,180,0.0,0.0,86,0.00,,,0.00,WUHU216HW,2013-08-07 05:56:00,
2013-08-07 02:01:00,70.5,66.4,29.97,South,180,0.0,0.0,87,0.00,,,0.00,WUHU216HW,2013-08-07 06:01:00,
2013-08-07 02:06:00,70.3,65.9,29.97,South,180,0.0,0.8,86,0.00,,,0.00,WUHU216HW,2013-08-07 06:06:00,
2013-08-07 02:11:00,70.3,65.9,29.96,South,180,1.7,2.2,86,0.00,,,0.00,WUHU216HW,2013-08-07 06:11:00,
2013-08-07 02:16:00,70.3,66.2,29.96,South,180,0.6,2.6,87,0.00,,,0.00,WUHU216HW,2013-08-07 06:16:00,
2013-08-07 02:21:00,70.3,66.2,29.97,South,180,0.0,2.6,87,0.00,,,0.00,WUHU216HW,2013-08-07 06:21:00,
2013-08-07 02:26:00,70.3,66.2,29.97,SSW,203,0.0,1.3,87,0.00,,,0.00,WUHU216HW,2013-08-07 06:26:00,
2013-08-07 02:31:00,70.3,66.2,29.97,SSW,203,0.0,0.8,87,0.00,,,0.00,WUHU216HW,2013-08-07 06:31:00,
2013-08-07 02:36:00,70.3,66.2,29.97,South,180,0.0,0.8,87,0.00,,,0.00,WUHU216HW,2013-08-07 06:36:00,
2013-08-07 02:41:00,70.3,66.2,29.97,South,180,0.0,0.0,87,0.00,,,0.00,WUHU216HW,2013-08-07 06:41:00,
2013-08-07 02:46:00,70.3,66.2,29.97,South,180,0.0,0.0,87,0.00,,,0.00,WUHU216HW,2013-08-07 06:46:00,
2013-08-07 02:51:00,70.3,66.2,29.96,South,180,0.0,0.0,87,0.00,,,0.00,WUHU216HW,2013-08-07 06:51:00,
2013-08-07 02:56:00,70.1,66.4,29.96,South,180,0.0,1.7,88,0.00,,,0.00,WUHU216HW,2013-08-07 06:56:00,
2013-08-07 03:01:00,70.3,66.5,29.96,SSW,203,0.0,1.7,88,0.00,,,0.00,WUHU216HW,2013-08-07 07:01:00,
2013-08-07 03:06:00,70.3,66.5,29.96,South,180,0.0,0.0,88,0.00,,,0.00,WUHU216HW,2013-08-07 07:06:00,
2013-08-07 03:10:00,70.3,66.5,29.96,SSW,203,0.0,0.0,88,0.00,,,0.00,WUHU216HW,2013-08-07 07:10:00,
2013-08-07 03:15:00,70.1,66.4,29.96,SSW,203,0.0,0.0,88,0.00,,,0.00,WUHU216HW,2013-08-07 07:15:00,
2013-08-07 03:20:00,70.1,66.4,29.95,SSW,203,0.0,0.0,88,0.00,,,0.00,WUHU216HW,2013-08-07 07:20:00,
2013-08-07 03:25:00,70.1,66.4,29.96,SSW,203,0.0,0.0,88,0.00,,,0.00,WUHU216HW,2013-08-07 07:25:00,
2013-08-07 03:30:00,69.9,66.2,29.95,SSW,203,0.0,0.0,88,0.00,,,0.00,WUHU216HW,2013-08-07 07:30:00,
2013-08-07 03:35:00,69.9,66.2,29.95,SSW,203,0.0,0.0,88,0.00,,,0.00,WUHU216HW,2013-08-07 07:35:00,
2013-08-07 03:40:00,69.9,66.2,29.95,SSW,203,0.0,0.0,88,0.00,,,0.00,WUHU216HW,2013-08-07 07:40:00,
2013-08-07 03:45:00,69.8,66.0,29.95,SSW,203,0.0,0.0,88,0.00,,,0.00,WUHU216HW,2013-08-07 07:45:00,
2013-08-07 03:50:00,69.6,65.8,29.94,SSW,203,0.0,0.0,88,0.00,,,0.00,WUHU216HW,2013-08-07 07:50:00,
2013-08-07 03:55:00,69.6,65.8,29.94,SSW,203,0.0,0.0,88,0.00,,,0.00,WUHU216HW,2013-08-07 07:55:00,
2013-08-07 04:00:00,69.6,65.8,29.94,SSW,203,0.0,0.0,88,0.00,,,0.00,WUHU216HW,2013-08-07 08:00:00,
2013-08-07 04:05:00,69.6,66.2,29.94,South,180,0.0,1.5,89,0.00,,,0.00,WUHU216HW,2013-08-07 08:05:00,
2013-08-07 04:10:00,69.6,66.2,29.95,SSW,203,0.0,1.5,89,0.00,,,0.00,WUHU216HW,2013-08-07 08:10:00,
2013-08-07 04:15:00,69.6,66.2,29.94,SSW,203,0.0,0.0,89,0.00,,,0.00,WUHU216HW,2013-08-07 08:15:00,
2013-08-07 04:20:00,69.6,66.2,29.94,SSW,203,0.0,0.0,89,0.00,,,0.00,WUHU216HW,2013-08-07 08:20:00,
2013-08-07 04:25:00,69.6,66.2,29.94,SSW,203,0.0,0.0,89,0.00,,,0.00,WUHU216HW,2013-08-07 08:25:00,
2013-08-07 04:30:00,69.4,66.0,29.93,SSW,203,0.0,0.0,89,0.00,,,0.00,WUHU216HW,2013-08-07 08:30:00,
2013-08-07 04:35:00,69.4,66.0,29.93,SSW,203,0.0,0.0,89,0.00,,,0.00,WUHU216HW,2013-08-07 08:35:00,
2013-08-07 04:40:00,69.4,66.0,29.93,SSW,203,0.0,0.0,89,0.00,,,0.00,WUHU216HW,2013-08-07 08:40:00,
2013-08-07 04:45:00,69.2,65.8,29.93,SSW,203,0.0,0.0,89,0.00,,,0.00,WUHU216HW,2013-08-07 08:45:00,
2013-08-07 04:50:00,69.2,65.8,29.93,SSW,203,0.0,0.0,89,0.00,,,0.00,WUHU216HW,2013-08-07 08:50:00,
2013-08-07 04:55:00,69.2,65.8,29.93,SSW,203,0.0,0.0,89,0.00,,,0.00,WUHU216HW,2013-08-07 08:55:00,
2013-08-07 05:00:00,69.0,65.6,29.93,SSW,203,0.0,0.0,89,0.00,,,0.00,WUHU216HW,2013-08-07 09:00:00,
2013-08-07 05:05:00,69.0,65.6,29.93,SSW,203,0.0,0.0,89,0.00,,,0.00,WUHU216HW,2013-08-07 09:05:00,
2013-08-07 05:10:00,69.0,65.6,29.93,SSW,203,0.0,0.0,89,0.00,,,0.00,WUHU216HW,2013-08-07 09:10:00,
2013-08-07 05:15:00,69.0,65.6,29.93,SSW,203,0.0,0.0,89,0.00,,,0.00,WUHU216HW,2013-08-07 09:15:00,
2013-08-07 05:20:00,69.0,65.6,29.93,SSW,203,0.0,0.0,89,0.00,,,0.00,WUHU216HW,2013-08-07 09:20:00,
2013-08-07 05:25:00,69.0,66.0,29.94,SSW,203,0.0,0.0,90,0.00,,,0.00,WUHU216HW,2013-08-07 09:25:00,
2013-08-07 05:30:00,69.0,66.0,29.93,SSW,203,0.0,0.0,90,0.00,,,0.00,WUHU216HW,2013-08-07 09:30:00,
2013-08-07 05:35:00,69.0,66.0,29.93,SSW,203,0.0,0.0,90,0.00,,,0.00,WUHU216HW,2013-08-07 09:35:00,
2013-08-07 05:40:00,69.0,66.0,29.94,SSW,203,0.0,0.0,90,0.00,,,0.00,WUHU216HW,2013-08-07 09:40:00,
2013-08-07 05:45:00,69.0,66.0,29.94,SSW,203,0.0,0.0,90,0.00,,,0.00,WUHU216HW,2013-08-07 09:45:00,
2013-08-07 05:50:00,69.0,66.0,29.93,SSW,203,0.0,0.0,90,0.00,,,0.00,WUHU216HW,2013-08-07 09:50:00,
2013-08-07 05:55:00,69.0,66.0,29.93,SSW,203,0.0,0.0,90,0.00,,,0.00,WUHU216HW,2013-08-07 09:55:00,
2013-08-07 06:00:00,69.0,66.0,29.93,SSW,203,0.0,0.0,90,0.00,,,0.00,WUHU216HW,2013-08-07 10:00:00,
2013-08-07 06:05:00,68.9,66.0,29.93,SSW,203,0.0,0.0,90,0.00,,,0.00,WUHU216HW,2013-08-07 10:05:00,
2013-08-07 06:10:00,68.9,65.8,29.93,SSW,203,0.0,0.0,90,0.00,,,0.00,WUHU216HW,2013-08-07 10:10:00,
2013-08-07 06:15:00,68.9,65.8,29.92,SSW,203,0.0,0.0,90,0.00,,,0.00,WUHU216HW,2013-08-07 10:15:00,
2013-08-07 06:20:00,68.9,65.8,29.92,SSW,203,0.0,0.0,90,0.00,,,0.00,WUHU216HW,2013-08-07 10:20:00,
2013-08-07 06:25:00,68.9,65.8,29.92,SSW,203,0.0,0.0,90,0.00,,,0.00,WUHU216HW,2013-08-07 10:25:00,
2013-08-07 06:30:00,68.9,65.8,29.92,SSW,203,0.0,0.0,90,0.00,,,0.00,WUHU216HW,2013-08-07 10:30:00,
2013-08-07 06:35:00,68.9,65.8,29.92,SSW,203,0.0,0.0,90,0.00,,,0.00,WUHU216HW,2013-08-07 10:35:00,
2013-08-07 06:40:00,68.9,66.1,29.92,SSW,203,0.0,0.0,91,0.00,,,0.00,WUHU216HW,2013-08-07 10:40:00,
2013-08-07 06:45:00,68.9,66.1,29.92,SSW,203,0.0,0.0,91,0.00,,,0.00,WUHU216HW,2013-08-07 10:45:00,
2013-08-07 06:50:00,68.9,66.1,29.92,South,180,0.0,0.0,91,0.00,,,0.00,WUHU216HW,2013-08-07 10:50:00,
2013-08-07 06:55:00,68.9,66.1,29.92,South,180,0.0,0.0,91,0.00,,,0.00,WUHU216HW,2013-08-07 10:55:00,
2013-08-07 07:00:00,68.9,66.1,29.92,SSW,203,0.0,0.0,91,0.00,,,0.00,WUHU216HW,2013-08-07 11:00:00,
2013-08-07 07:05:00,68.9,66.1,29.92,South,180,0.0,0.0,91,0.00,,,0.00,WUHU216HW,2013-08-07 11:05:00,
2013-08-07 07:10:00,68.9,66.1,29.93,South,180,0.0,0.0,91,0.00,,,0.00,WUHU216HW,2013-08-07 11:10:00,
2013-08-07 07:15:00,69.0,66.3,29.93,South,180,0.0,0.0,91,0.00,,,0.00,WUHU216HW,2013-08-07 11:15:00,
2013-08-07 07:20:00,69.0,66.1,29.93,South,180,0.0,0.0,91,0.00,,,0.00,WUHU216HW,2013-08-07 11:20:00,
2013-08-07 07:25:00,69.0,66.3,29.93,South,180,0.0,0.0,91,0.00,,,0.00,WUHU216HW,2013-08-07 11:25:00,
2013-08-07 07:30:00,69.0,66.3,29.93,South,180,0.0,0.0,91,0.00,,,0.00,WUHU216HW,2013-08-07 11:30:00,
2013-08-07 07:35:00,68.9,66.1,29.93,South,180,0.0,0.0,91,0.00,,,0.00,WUHU216HW,2013-08-07 11:35:00,
2013-08-07 07:40:00,69.0,66.3,29.93,South,180,0.0,0.0,91,0.00,,,0.00,WUHU216HW,2013-08-07 11:40:00,
2013-08-07 07:45:00,69.0,66.3,29.93,South,180,0.0,0.0,91,0.00,,,0.00,WUHU216HW,2013-08-07 11:45:00,
2013-08-07 07:50:00,68.9,66.1,29.93,SSW,203,0.0,0.0,91,0.00,,,0.00,WUHU216HW,2013-08-07 11:50:00,
2013-08-07 07:55:00,69.0,66.3,29.93,SSW,203,0.8,0.8,91,0.00,,,0.00,WUHU216HW,2013-08-07 11:55:00,
2013-08-07 08:00:00,69.0,66.6,29.93,SSW,203,0.0,0.8,92,0.00,,,0.00,WUHU216HW,2013-08-07 12:00:00,
2013-08-07 08:05:00,69.0,66.6,29.93,SSW,203,0.0,0.8,92,0.00,,,0.00,WUHU216HW,2013-08-07 12:05:00,
2013-08-07 08:10:00,69.2,66.8,29.93,SSW,203,0.0,0.0,92,0.00,,,0.00,WUHU216HW,2013-08-07 12:10:00,
2013-08-07 08:15:00,69.4,66.9,29.93,SSW,203,0.0,0.0,92,0.00,,,0.00,WUHU216HW,2013-08-07 12:15:00,
2013-08-07 08:20:00,69.4,66.9,29.94,SSW,203,0.0,0.0,92,0.00,,,0.00,WUHU216HW,2013-08-07 12:20:00,
2013-08-07 08:25:00,69.6,67.1,29.95,SSW,203,0.0,0.0,92,0.00,,,0.00,WUHU216HW,2013-08-07 12:25:00,
2013-08-07 08:30:00,69.6,67.1,29.95,SSW,203,0.0,0.0,92,0.00,,,0.00,WUHU216HW,2013-08-07 12:30:00,
2013-08-07 08:35:00,69.9,67.5,29.95,SSW,203,0.0,0.0,92,0.00,,,0.00,WUHU216HW,2013-08-07 12:35:00,
2013-08-07 08:40:00,69.9,67.5,29.95,SSW,203,0.0,0.0,92,0.00,,,0.00,WUHU216HW,2013-08-07 12:40:00,
2013-08-07 08:45:00,70.1,67.7,29.94,SSW,203,2.4,2.4,92,0.00,,,0.00,WUHU216HW,2013-08-07 12:45:00,
2013-08-07 08:50:00,70.3,68.0,29.94,South,180,0.0,2.4,92,0.00,,,0.00,WUHU216HW,2013-08-07 12:50:00,
2013-08-07 08:55:00,70.8,68.4,29.94,South,180,0.0,0.8,92,0.00,,,0.00,WUHU216HW,2013-08-07 12:55:00,
2013-08-07 09:00:00,70.8,68.4,29.94,South,180,0.0,0.0,92,0.00,,,0.00,WUHU216HW,2013-08-07 13:00:00,
2013-08-07 09:05:00,71.4,68.9,29.95,South,180,0.0,1.7,92,0.00,,,0.00,WUHU216HW,2013-08-07 13:05:00,
2013-08-07 09:10:00,71.6,69.1,29.95,SSW,203,0.0,1.7,92,0.00,,,0.00,WUHU216HW,2013-08-07 13:10:00,
2013-08-07 09:15:00,71.7,69.0,29.95,ENE,68,0.0,0.0,91,0.00,,,0.00,WUHU216HW,2013-08-07 13:15:00,
2013-08-07 09:20:00,72.1,69.3,29.96,ENE,68,0.0,0.0,91,0.00,,,0.00,WUHU216HW,2013-08-07 13:20:00,
2013-08-07 09:25:00,72.3,69.5,29.96,ENE,68,0.0,0.0,91,0.00,,,0.00,WUHU216HW,2013-08-07 13:25:00,
2013-08-07 09:30:00,72.5,69.7,29.96,ESE,113,0.0,1.5,91,0.00,,,0.00,WUHU216HW,2013-08-07 13:30:00,
2013-08-07 09:35:00,72.1,69.3,29.97,ENE,68,0.0,1.5,91,0.00,,,0.00,WUHU216HW,2013-08-07 13:35:00,
2013-08-07 09:40:00,71.7,68.7,29.97,East,90,1.1,1.1,90,0.00,,,0.00,WUHU216HW,2013-08-07 13:40:00,
2013-08-07 09:45:00,71.4,68.3,29.97,NE,45,0.0,1.1,90,0.00,,,0.00,WUHU216HW,2013-08-07 13:45:00,
2013-08-07 09:50:00,71.2,68.0,29.98,NE,45,1.1,1.1,89,0.00,,,0.00,WUHU216HW,2013-08-07 13:50:00,
2013-08-07 09:55:00,70.8,67.1,29.98,NE,45,1.7,1.7,88,0.00,,,0.00,WUHU216HW,2013-08-07 13:55:00,
2013-08-07 10:00:00,70.3,66.2,29.97,ENE,68,1.1,1.7,87,0.00,,,0.00,WUHU216HW,2013-08-07 14:00:00,
2013-08-07 10:05:00,69.9,65.7,29.97,ENE,68,0.0,1.7,87,0.00,,,0.00,WUHU216HW,2013-08-07 14:05:00,
2013-08-07 10:10:00,69.6,65.1,29.97,ESE,113,0.6,0.6,86,0.00,,,0.00,WUHU216HW,2013-08-07 14:10:00,
2013-08-07 10:15:00,69.2,64.8,29.97,SSE,158,0.6,0.8,86,0.00,,,0.00,WUHU216HW,2013-08-07 14:15:00,
2013-08-07 10:20:00,69.0,64.6,29.97,East,90,2.9,2.9,86,0.00,,,0.00,WUHU216HW,2013-08-07 14:20:00,
2013-08-07 10:25:00,68.9,64.5,29.97,SE,135,2.0,4.9,86,0.00,,,0.00,WUHU216HW,2013-08-07 14:25:00,
2013-08-07 10:30:00,68.9,64.5,29.96,East,90,0.0,4.9,86,0.00,,,0.00,WUHU216HW,2013-08-07 14:30:00,
2013-08-07 10:35:00,68.9,64.5,29.97,SE,135,0.0,2.0,86,0.00,,,0.00,WUHU216HW,2013-08-07 14:35:00,
2013-08-07 10:40:00,69.0,64.6,29.97,SE,135,0.0,0.0,86,0.00,,,0.00,WUHU216HW,2013-08-07 14:40:00,
2013-08-07 10:45:00,69.0,64.6,29.97,ESE,113,0.0,0.0,86,0.00,,,0.00,WUHU216HW,2013-08-07 14:45:00,
2013-08-07 10:50:00,69.4,64.8,29.97,East,90,0.0,2.9,86,0.00,,,0.00,WUHU216HW,2013-08-07 14:50:00,
2013-08-07 10:55:00,69.6,65.1,29.97,SE,135,0.0,2.9,86,0.00,,,0.00,WUHU216HW,2013-08-07 14:55:00,
2013-08-07 11:03:00,70.3,65.5,29.96,ESE,113,2.9,2.9,85,0.00,,,0.00,WUHU216HW,2013-08-07 15:03:00,
2013-08-07 11:08:00,70.5,65.7,29.96,ESE,113,1.5,2.9,85,0.00,,,0.00,WUHU216HW,2013-08-07 15:08:00,
2013-08-07 11:13:00,70.8,65.7,29.96,SE,135,3.8,3.8,84,0.00,,,0.00,WUHU216HW,2013-08-07 15:13:00,
2013-08-07 11:18:00,71.2,66.1,29.97,ESE,113,0.0,3.8,84,0.00,,,0.00,WUHU216HW,2013-08-07 15:18:00,
2013-08-07 11:23:00,71.4,65.9,29.96,ESE,113,0.0,3.8,83,0.00,,,0.00,WUHU216HW,2013-08-07 15:23:00,
2013-08-07 11:28:00,71.4,65.9,29.97,ESE,113,0.0,2.9,83,0.00,,,0.00,WUHU216HW,2013-08-07 15:28:00,
2013-08-07 11:33:00,71.7,66.3,29.97,ESE,113,0.0,3.3,83,0.00,,,0.00,WUHU216HW,2013-08-07 15:33:00,
2013-08-07 11:38:00,71.9,66.1,29.97,SE,135,0.0,3.3,82,0.00,,,0.00,WUHU216HW,2013-08-07 15:38:00,
2013-08-07 11:43:00,71.9,66.1,29.97,SE,135,0.0,2.2,82,0.00,,,0.00,WUHU216HW,2013-08-07 15:43:00,
2013-08-07 11:48:00,71.9,66.1,29.97,SE,135,0.0,0.0,82,0.00,,,0.00,WUHU216HW,2013-08-07 15:48:00,
2013-08-07 11:53:00,72.6,66.8,29.97,SE,135,0.0,0.0,82,0.00,,,0.00,WUHU216HW,2013-08-07 15:53:00,
2013-08-07 11:58:00,72.6,66.8,29.97,SE,135,0.0,0.0,82,0.00,,,0.00,WUHU216HW,2013-08-07 15:58:00,
2013-08-07 12:03:00,72.6,66.8,29.98,SE,135,0.0,0.0,82,0.00,,,0.00,WUHU216HW,2013-08-07 16:03:00,
2013-08-07 13:20:00,81.6,72.1,29.95,SSW,203,2.0,2.0,73,0.00,,,0.00,WUHU216HW,2013-08-07 17:20:00,
2013-08-07 13:25:00,82.5,72.5,29.95,SSW,203,2.0,2.0,72,0.00,,,0.00,WUHU216HW,2013-08-07 17:25:00,
2013-08-07 13:30:00,82.5,72.5,29.95,SSW,203,2.0,2.0,72,0.00,,,0.00,WUHU216HW,2013-08-07 17:30:00,
2013-08-07 13:35:00,82.5,72.5,29.95,SSW,203,2.0,2.0,72,0.00,,,0.00,WUHU216HW,2013-08-07 17:35:00,
2013-08-07 13:40:00,82.5,72.5,29.95,SSW,203,2.0,2.0,72,0.00,,,0.00,WUHU216HW,2013-08-07 17:40:00,
2013-08-07 14:21:00,84.3,0.0,29.96,SSE,158,4.4,4.4,65,0.00,,,0.00,WUHU216HW,2013-08-07 18:21:00,
2013-08-07 14:26:00,84.3,71.5,29.96,SSE,158,4.4,4.4,65,0.00,,,0.00,WUHU216HW,2013-08-07 18:26:00,
2013-08-07 14:31:00,82.4,69.3,29.96,SSE,158,4.4,4.4,65,0.00,,,0.00,WUHU216HW,2013-08-07 18:31:00,
2013-08-07 14:36:00,81.5,68.5,29.95,SSE,158,4.4,4.4,65,0.00,,,0.00,WUHU216HW,2013-08-07 18:36:00,
2013-08-07 14:41:00,81.5,68.5,29.95,SSE,158,4.4,4.4,65,0.00,,,0.00,WUHU216HW,2013-08-07 18:41:00,
2013-08-07 14:46:00,81.5,68.5,29.95,SSE,158,4.4,4.4,65,0.00,,,0.00,WUHU216HW,2013-08-07 18:46:00,
2013-08-07 15:24:00,0.0,0.0,29.96,SSW,203,6.0,6.0,71,0.00,,,0.00,WUHU216HW,2013-08-07 19:24:00,
2013-08-07 15:29:00,0.0,-7.7,29.95,South,180,0.0,6.0,69,0.00,,,0.00,WUHU216HW,2013-08-07 19:29:00,
2013-08-07 15:34:00,0.0,-7.7,29.96,SSW,203,3.8,6.0,69,0.00,,,0.00,WUHU216HW,2013-08-07 19:34:00,
2013-08-07 15:39:00,79.5,68.0,29.95,SW,225,4.2,4.4,68,0.00,,,0.00,WUHU216HW,2013-08-07 19:39:00,
2013-08-07 15:44:00,79.5,68.0,29.95,SW,225,4.2,4.2,68,0.00,,,0.00,WUHU216HW,2013-08-07 19:44:00,
2013-08-07 15:49:00,78.6,68.7,29.95,SSW,203,1.1,4.2,71,0.00,,,0.00,WUHU216HW,2013-08-07 19:49:00,
2013-08-07 15:54:00,78.6,68.3,29.95,SSW,203,1.1,2.2,71,0.00,,,0.00,WUHU216HW,2013-08-07 19:54:00,
2013-08-07 15:59:00,78.4,68.2,29.95,South,180,2.4,2.4,71,0.00,,,0.00,WUHU216HW,2013-08-07 19:59:00,
2013-08-07 16:04:00,78.6,68.3,29.95,South,180,2.4,2.4,71,0.00,,,0.00,WUHU216HW,2013-08-07 20:04:00,
2013-08-07 16:09:00,79.5,69.2,29.95,South,180,2.4,2.4,71,0.00,,,0.00,WUHU216HW,2013-08-07 20:09:00,
2013-08-07 16:14:00,80.7,69.6,29.96,South,180,2.4,2.4,69,0.00,,,0.00,WUHU216HW,2013-08-07 20:14:00,
2013-08-07 16:19:00,80.9,69.4,29.96,South,180,2.4,2.4,68,0.00,,,0.00,WUHU216HW,2013-08-07 20:19:00,
2013-08-07 16:24:00,80.9,69.4,29.96,South,180,2.4,2.4,68,0.00,,,0.00,WUHU216HW,2013-08-07 20:24:00,
2013-08-07 16:29:00,80.9,69.4,29.95,South,180,2.4,2.4,68,0.00,,,0.00,WUHU216HW,2013-08-07 20:29:00,
2013-08-07 16:34:00,80.9,69.4,29.96,South,180,2.4,2.4,68,0.00,,,0.00,WUHU216HW,2013-08-07 20:34:00,
2013-08-07 16:39:00,82.9,71.2,29.96,South,180,2.4,2.4,68,0.00,,,0.00,WUHU216HW,2013-08-07 20:39:00,
2013-08-07 16:44:00,82.9,69.4,29.95,South,180,2.4,2.4,64,0.00,,,0.00,WUHU216HW,2013-08-07 20:44:00,
2013-08-07 16:49:00,82.9,69.4,29.95,South,180,2.4,2.4,64,0.00,,,0.00,WUHU216HW,2013-08-07 20:49:00,
2013-08-07 16:54:00,82.9,69.4,29.96,South,180,2.4,2.4,64,0.00,,,0.00,WUHU216HW,2013-08-07 20:54:00,
2013-08-07 19:02:00,83.3,70.7,29.98,NW,315,0.0,0.0,66,0.00,,,0.00,WUHU216HW,2013-08-07 23:02:00,
2013-08-07 19:07:00,83.4,70.8,29.98,NW,315,0.0,0.0,66,0.00,,,0.00,WUHU216HW,2013-08-07 23:07:00,
2013-08-07 19:12:00,83.6,70.6,29.98,NW,315,0.0,0.0,65,0.00,,,0.00,WUHU216HW,2013-08-07 23:12:00,
2013-08-07 19:17:00,83.1,70.0,29.98,WSW,248,0.0,0.0,65,0.00,,,0.00,WUHU216HW,2013-08-07 23:17:00,
2013-08-07 19:22:00,83.1,70.0,29.99,WSW,248,0.0,0.0,65,0.00,,,0.00,WUHU216HW,2013-08-07 23:22:00,
2013-08-07 19:27:00,82.5,69.5,29.99,WSW,248,0.0,0.0,65,0.00,,,0.00,WUHU216HW,2013-08-07 23:27:00,
2013-08-07 19:32:00,82.5,69.5,29.99,WSW,248,0.0,0.0,65,0.00,,,0.00,WUHU216HW,2013-08-07 23:32:00,
2013-08-07 19:37:00,82.5,69.5,29.99,WSW,248,0.0,0.0,65,0.00,,,0.00,WUHU216HW,2013-08-07 23:37:00,
2013-08-07 19:42:00,81.3,68.8,29.99,North,0,0.0,0.0,66,0.00,,,0.00,WUHU216HW,2013-08-07 23:42:00,
2013-08-07 19:47:00,80.9,68.9,29.99,North,0,0.0,0.0,67,0.00,,,0.00,WUHU216HW,2013-08-07 23:47:00,
2013-08-07 19:52:00,80.6,69.0,29.99,North,0,0.0,0.0,68,0.00,,,0.00,WUHU216HW,2013-08-07 23:52:00,
2013-08-07 19:57:00,80.6,69.0,30.00,North,0,0.0,0.0,68,0.00,,,0.00,WUHU216HW,2013-08-07 23:57:00,
2013-08-07 20:02:00,79.8,68.8,30.00,North,0,0.0,0.0,69,0.00,,,0.00,WUHU216HW,2013-08-08 00:02:00,
2013-08-07 20:07:00,79.5,68.9,30.00,North,0,0.0,1.5,70,0.00,,,0.00,WUHU216HW,2013-08-08 00:07:00,
2013-08-07 20:12:00,79.1,68.9,29.99,North,0,2.4,3.5,71,0.00,,,0.00,WUHU216HW,2013-08-08 00:12:00,
2013-08-07 20:17:00,78.9,68.7,30.00,NNE,23,0.0,3.5,71,0.00,,,0.00,WUHU216HW,2013-08-08 00:17:00,
2013-08-07 20:22:00,78.4,68.6,30.00,North,0,0.0,5.3,72,0.00,,,0.00,WUHU216HW,2013-08-08 00:22:00,
2013-08-07 20:27:00,77.9,68.5,30.00,NNE,23,0.0,5.3,73,0.00,,,0.00,WUHU216HW,2013-08-08 00:27:00,
2013-08-07 20:32:00,77.3,68.0,30.00,North,0,0.0,0.8,73,0.00,,,0.00,WUHU216HW,2013-08-08 00:32:00,
2013-08-07 20:37:00,76.8,67.5,29.99,NNE,23,0.0,0.8,73,0.00,,,0.00,WUHU216HW,2013-08-08 00:37:00,
2013-08-07 20:42:00,76.1,67.2,29.99,NNE,23,0.0,2.2,74,0.00,,,0.00,WUHU216HW,2013-08-08 00:42:00,
2013-08-07 20:47:00,75.7,67.2,30.00,North,0,0.0,2.2,75,0.00,,,0.00,WUHU216HW,2013-08-08 00:47:00,
2013-08-07 20:52:00,75.0,66.5,30.00,NNE,23,0.0,0.0,75,0.00,,,0.00,WUHU216HW,2013-08-08 00:52:00,
2013-08-07 20:57:00,74.4,66.4,30.00,North,0,0.0,0.0,76,0.00,,,0.00,WUHU216HW,2013-08-08 00:57:00,
2013-08-07 21:02:00,74.1,66.0,30.00,North,0,0.0,0.0,76,0.00,,,0.00,WUHU216HW,2013-08-08 01:02:00,
2013-08-07 21:07:00,73.7,66.1,30.00,North,0,0.0,0.0,77,0.00,,,0.00,WUHU216HW,2013-08-08 01:07:00,
2013-08-07 21:12:00,73.2,65.6,30.01,NNE,23,0.0,0.0,77,0.00,,,0.00,WUHU216HW,2013-08-08 01:12:00,
2013-08-07 21:17:00,73.0,65.4,30.01,NNE,23,0.0,0.0,77,0.00,,,0.00,WUHU216HW,2013-08-08 01:17:00,
2013-08-07 21:22:00,72.6,65.4,30.02,NNE,23,0.0,0.0,78,0.00,,,0.00,WUHU216HW,2013-08-08 01:22:00,
2013-08-07 21:27:00,72.3,65.0,30.02,NNE,23,0.0,0.0,78,0.00,,,0.00,WUHU216HW,2013-08-08 01:27:00,
2013-08-07 21:32:00,72.3,65.0,30.02,NE,45,1.7,1.7,78,0.00,,,0.00,WUHU216HW,2013-08-08 01:32:00,
2013-08-07 21:37:00,72.1,64.9,30.03,NE,45,0.0,1.7,78,0.00,,,0.00,WUHU216HW,2013-08-08 01:37:00,
2013-08-07 21:42:00,71.7,64.5,30.03,NE,45,0.0,0.0,78,0.00,,,0.00,WUHU216HW,2013-08-08 01:42:00,
2013-08-07 21:47:00,71.6,64.3,30.03,North,0,0.0,0.0,78,0.00,,,0.00,WUHU216HW,2013-08-08 01:47:00,
2013-08-07 21:52:00,71.4,64.1,30.04,NNE,23,0.0,0.0,78,0.00,,,0.00,WUHU216HW,2013-08-08 01:52:00,
2013-08-07 21:57:00,71.4,64.1,30.04,North,0,0.0,0.0,78,0.00,,,0.00,WUHU216HW,2013-08-08 01:57:00,
2013-08-07 22:02:00,71.4,64.1,30.04,North,0,0.0,0.0,78,0.00,,,0.00,WUHU216HW,2013-08-08 02:02:00,
2013-08-07 22:07:00,71.4,64.1,30.05,North,0,0.0,0.0,78,0.00,,,0.00,WUHU216HW,2013-08-08 02:07:00,
2013-08-07 22:12:00,71.2,64.0,30.05,North,0,0.0,0.0,78,0.00,,,0.00,WUHU216HW,2013-08-08 02:12:00,
2013-08-07 22:17:00,71.2,64.0,30.06,North,0,0.0,0.0,78,0.00,,,0.00,WUHU216HW,2013-08-08 02:17:00,
2013-08-07 22:22:00,70.8,63.4,30.06,North,0,0.0,0.0,78,0.00,,,0.00,WUHU216HW,2013-08-08 02:22:00,
2013-08-07 22:27:00,70.5,63.2,30.06,North,0,0.0,0.0,78,0.00,,,0.00,WUHU216HW,2013-08-08 02:27:00,
2013-08-07 22:32:00,70.3,63.1,30.06,North,0,0.0,0.0,78,0.00,,,0.00,WUHU216HW,2013-08-08 02:32:00,
2013-08-07 22:37:00,70.3,63.1,30.06,North,0,0.0,0.0,78,0.00,,,0.00,WUHU216HW,2013-08-08 02:37:00,
2013-08-07 22:42:00,70.1,62.9,30.06,North,0,0.0,0.0,78,0.00,,,0.00,WUHU216HW,2013-08-08 02:42:00,
2013-08-07 22:47:00,70.1,62.9,30.06,North,0,0.0,0.0,78,0.00,,,0.00,WUHU216HW,2013-08-08 02:47:00,
2013-08-07 22:52:00,70.1,62.9,30.05,North,0,0.0,0.0,78,0.00,,,0.00,WUHU216HW,2013-08-08 02:52:00,
2013-08-07 22:57:00,70.1,63.3,30.05,North,0,0.0,0.0,79,0.00,,,0.00,WUHU216HW,2013-08-08 02:57:00,
2013-08-07 23:02:00,69.8,62.9,30.05,North,0,0.0,0.0,79,0.00,,,0.00,WUHU216HW,2013-08-08 03:02:00,
2013-08-07 23:06:00,69.6,62.7,30.05,North,0,0.0,0.0,79,0.00,,,0.00,WUHU216HW,2013-08-08 03:06:00,
2013-08-07 23:11:00,69.6,63.1,30.05,North,0,0.0,0.0,80,0.00,,,0.00,WUHU216HW,2013-08-08 03:11:00,
2013-08-07 23:16:00,69.6,63.1,30.05,North,0,0.0,0.0,80,0.00,,,0.00,WUHU216HW,2013-08-08 03:16:00,
2013-08-07 23:21:00,69.4,62.9,30.06,North,0,0.0,0.0,80,0.00,,,0.00,WUHU216HW,2013-08-08 03:21:00,
2013-08-07 23:26:00,69.0,62.6,30.05,North,0,0.0,0.0,80,0.00,,,0.00,WUHU216HW,2013-08-08 03:26:00,
2013-08-07 23:31:00,69.0,62.6,30.05,North,0,0.0,0.0,80,0.00,,,0.00,WUHU216HW,2013-08-08 03:31:00,
2013-08-07 23:36:00,69.0,62.6,30.05,North,0,0.0,0.0,80,0.00,,,0.00,WUHU216HW,2013-08-08 03:36:00,
2013-08-07 23:41:00,69.0,62.6,30.05,North,0,0.0,0.0,80,0.00,,,0.00,WUHU216HW,2013-08-08 03:41:00,
2013-08-07 23:46:00,69.0,62.6,30.05,North,0,0.0,0.0,80,0.00,,,0.00,WUHU216HW,2013-08-08 03:46:00,
2013-08-07 23:51:00,68.9,62.5,30.05,North,0,0.0,0.0,80,0.00,,,0.00,WUHU216HW,2013-08-08 03:51:00,
2013-08-07 23:56:00,68.7,62.3,30.05,North,0,0.0,0.0,80,0.00,,,0.00,WUHU216HW,2013-08-08 03:56:00,